User: anonymous
Location: Unspecified
(0.0000°N, 0.0000°E)
Time: 11:51:29
(UTC+00:00)
Language:

NAVSTAR 64 (USA 206) - Orbit

View from above orbital plane
View from above orbital plane
View from above satellite
View from above satellite

Ground track
Ground track

The orbit data is extracted from the following two-line orbital elements,

1 35752U 09043A   14212.20898389  .00000057  00000-0  00000+0 0  8490
2 35752 054.2688 202.1649 0036334 013.9226 161.4107 02.00565664 36321
Epoch (UTC): 31 July 2014 05:00:56
Eccentricity: 0.0036334
inclination: 54.2688°
perigee height: 20085 km
apogee height: 20278 km
right ascension of ascending node: 202.1649°
argument of perigee: 13.9226°
revolutions per day: 2.00565664
mean anomaly at epoch: 161.4107°
orbit number at epoch: 3632

The dashed part of the orbit path shows where the satellite is in the earth's shadow,  

DLR